RH
6 6 6 6 5 5 5 5 5 5 5 5 5 5 5 5 5 5 5 5 5 5 5 5 5 5 5 5 5 5 5 4 4 4 4 4 4 4 4 4 4 4 4 4 4 4 4 4 4 4 4 4 4 4 4 4 4 4 4 4 4 4 4 4 4 4 4 4 4 4 4 4 3 3 3 3 2 2 2 2 2 2 2 2 2 1 2 2 2 2 2 2 2 2 2 2 2 2 2 2 2 2 2
6 6 6 6 5 5 5 5 5 5 5 5 5 5 5 5 5 5 5 5 5 5 5 5 5 5 5 5 5 5 5 5 5 5 4 4 4 4 4 4 4 4 4 4 4 4 4 4 4 4 4 4 4 4 4 4 4 4 5 4 4 4 4 4 4 4 4 4 4 4 4 4 4 4 4 3 3 3 2 2 2 2 2 2 2 2 2 1 2 2 2 2 2 2 2 2 2 2 2 2 2 2 2
6 6 6 6 6 5 5 5 5 5 5 5 5 5 5 5 5 5 5 5 5 5 5 5 5 5 5 5 5 5 5 5 5 5 5 5 5 5 4 4 4 4 4 4 4 4 4 4 4 4 4 4 4 4 4 4 4 5 5 5 5 5 5 5 5 5 5 5 4 4 4 4 4 4 4 4 4 4 3 3 3 2 2 2 2 2 2 2 1 1 1 2 2 2 2 2 2 2 2 2 2 2 2
6 6 6 5 5 5 5 5 5 5 5 5 5 5 5 5 5 5 5 5 5 5 5 5 5 5 5 5 5 5 5 5 5 5 5 5 5 5 5 5 5 5 5 5 5 5 5 4 4 4 4 4 4 4 4 4 4 4 4 4 5 5 5 5 5 5 5 5 5 5 5 4 4 4 4 4 4 4 4 4 3 3 3 2 2 2 2 2 2 2 1 1 1 2 2 2 2 2 2 2 2 2 2
5 5 5 5 5 5 5 5 5 5 5 5 5 5 5 5 5 5 5 5 5 5 5 5 5 5 5 5 5 5 5 5 5 5 5 5 5 5 5 5 5 5 5 5 5 5 5 5 5 5 5 4 4 4 4 4 4 4 4 4 4 4 5 5 5 5 5 5 5 5 5 5 4 4 4 4 4 4 4 4 4 4 3 3 3 2 2 2 2 2 2 2 1 1 2 2 2 2 2 2 2 2 2
5 5 5 5 5 5 5 5 5 5 5 5 5 5 5 5 5 5 5 5 5 5 5 5 5 5 5 5 5 5 5 5 5 5 5 5 5 5 5 5 5 5 5 5 5 5 5 5 5 5 5 5 5 4 4 4 4 4 4 4 4 4 5 5 5 5 5 5 5 5 5 5 4 4 4 4 4 4 4 4 4 4 4 4 3 3 3 2 2 2 2 2 2 1 1 2 2 2 2 2 2 2 2
5 5 5 5 5 5 5 5 5 5 5 5 5 5 5 5 5 5 5 5 5 5 5 5 5 5 5 5 5 5 5 5 5 5 5 5 5 5 5 5 5 5 5 5 5 5 5 5 5 5 5 5 5 5 5 5 5 5 5 5 5 5 5 5 5 5 5 5 5 5 5 4 4 4 4 4 4 4 4 4 4 4 4 4 4 4 3 3 3 2 2 2 2 2 2 2 2 2 2 2 2 2 2
5 5 6 6 6 5 5 5 5 5 5 5 5 5 5 5 5 5 5 5 5 5 5 5 5 5 5 5 5 5 5 5 5 5 5 5 5 5 5 5 5 5 5 5 5 5 5 5 5 5 5 5 5 5 5 5 5 5 5 5 5 5 5 5 5 5 5 5 5 4 4 4 4 4 4 4 4 4 4 4 4 4 4 4 4 4 3 3 3 3 3 2 2 2 2 2 2 2 2 2 2 2 2
6 6 6 6 6 6 6 6 6 5 5 5 5 5 5 5 5 5 5 5 5 5 5 5 5 5 5 5 5 5 5 5 5 5 5 5 5 5 5 5 5 5 5 5 5 5 5 5 5 5 5 5 5 5 5 5 5 5 5 5 5 5 5 5 5 5 5 5 5 5 4 4 4 4 4 4 4 4 4 4 4 4 4 3 3 3 3 3 3 3 3 3 2 2 2 2 2 2 2 2 2 2 2
6 6 6 6 6 6 6 6 6 6 6 6 6 5 5 5 5 5 5 5 5 5 5 5 5 5 5 5 5 5 5 5 5 5 4 4 4 4 4 4 5 5 5 5 5 5 5 5 5 5 5 5 5 5 5 5 6 6 6 6 6 5 5 5 5 5 5 5 5 5 4 4 4 4 4 4 4 4 4 4 3 3 3 3 3 3 3 3 3 3 3 3 3 2 2 2 2 2 2 2 2 2 2
6 6 6 6 6 6 6 6 6 6 6 6 6 6 6 6 5 5 5 5 5 5 5 5 5 5 5 5 5 5 5 5 5 4 4 4 4 4 4 4 4 5 5 5 5 5 5 5 5 5 5 5 5 5 6 6 6 6 6 6 6 6 6 6 5 5 5 5 5 5 5 4 4 4 4 4 4 4 3 3 3 3 3 3 3 3 3 2 2 2 2 2 2 2 2 2 2 2 2 2 2 2 2
6 6 6 6 6 6 6 6 6 6 6 6 6 6 6 6 6 6 6 6 6 5 5 5 5 5 5 5 5 5 5 5 5 5 5 5 4 4 4 4 4 4 5 5 5 5 5 5 5 5 5 5 5 5 5 6 6 6 6 6 6 6 6 6 6 5 5 5 5 5 5 4 4 4 4 4 4 3 3 3 3 3 3 3 2 2 2 2 2 2 2 2 2 2 2 2 2 2 2 2 2 2 2
7 7 7 7 7 7 7 7 7 6 6 6 6 6 6 6 6 6 6 6 6 6 6 6 6 6 6 5 5 5 5 5 5 5 5 5 5 5 5 5 5 5 5 5 5 5 5 5 5 5 5 5 5 5 5 5 5 6 6 6 6 6 6 6 6 5 5 5 5 5 4 4 4 4 4 4 4 3 3 3 3 3 2 2 2 2 2 2 2 2 2 2 2 2 2 2 2 2 2 2 2 2 2
7 7 7 7 7 7 7 7 7 7 7 7 7 7 7 7 7 7 7 6 6 6 6 6 6 6 6 6 6 6 6 6 6 6 6 5 5 5 5 5 5 5 5 5 5 5 5 5 5 5 5 5 5 5 5 5 5 5 5 5 5 5 5 5 5 5 5 5 5 5 4 4 4 4 4 4 4 3 3 3 3 3 2 2 2 2 2 2 2 2 2 2 2 2 2 2 2 2 2 2 2 2 2
8 8 8 8 8 8 8 8 8 8 8 8 8 8 7 7 7 7 7 7 7 7 7 7 7 7 6 6 6 6 6 6 6 6 6 6 6 6 6 6 5 5 5 5 5 5 5 5 5 5 5 5 5 5 5 5 5 5 5 5 5 5 5 5 5 5 5 5 5 5 4 4 4 4 4 4 4 3 3 3 3 3 2 2 2 2 2 2 2 2 2 2 2 2 2 2 2 2 2 2 2 2 2
8 8 8 8 8 8 8 8 8 8 8 8 8 8 8 8 8 8 8 8 8 8 8 8 8 7 7 7 7 7 7 7 7 7 7 6 6 6 6 6 6 6 6 5 5 5 5 5 5 5 5 4 4 4 4 5 5 5 5 5 5 5 5 5 5 5 5 5 4 4 4 4 4 4 4 4 4 3 3 3 3 3 2 2 2 2 2 2 2 2 2 2 2 2 2 1 1 1 1 1 1 2 2
8 8 8 8 9 9 9 8 8 8 8 8 8 8 8 8 8 8 8 8 8 8 8 8 8 8 8 8 8 8 8 8 8 8 7 7 7 7 7 6 6 6 6 6 6 5 5 5 5 5 5 4 4 4 4 4 4 4 4 4 4 4 4 4 4 4 4 4 4 4 4 4 4 4 4 4 3 3 3 3 3 3 2 2 2 2 2 2 2 2 2 2 2 1 1 1 1 1 1 1 1 1 1
10 10 10 10 10 10 10 10 10 10 10 10 10 10 10 10 10 9 9 9 9 9 8 8 8 8 8 8 8 8 8 8 8 8 8 8 8 8 7 7 7 7 6 6 6 6 5 5 5 5 5 5 4 4 4 4 4 4 4 4 4 4 4 4 4 4 4 4 4 4 4 4 4 3 3 3 3 3 3 3 2 2 2 2 2 2 2 2 2 2 2 1 1 1 1 1 1 1 1 1 1 1 1
10 10 10 10 10 10 10 10 10 10 10 10 10 10 10 10 10 10 10 10 10 10 10 10 10 10 10 10 10 10 9 9 9 8 8 8 8 8 8 8 8 7 7 7 6 6 6 6 5 5 5 5 5 4 4 4 4 4 4 4 4 4 4 4 4 4 4 4 4 3 3 3 3 3 3 3 2 2 2 2 2 2 2 2 2 2 2 2 2 2 1 1 1 1 1 1 1 1 1 1 1 1 1
10 10 10 11 11 11 11 11 11 11 11 11 11 11 11 11 11 11 11 11 11 10 10 10 10 10 10 10 10 10 10 10 10 9 9 9 8 8 8 8 8 8 8 7 7 6 6 6 6 5 5 5 5 5 4 4 4 4 4 4 4 4 4 4 4 4 4 3 3 3 3 3 3 2 2 2 2 2 2 2 2 2 2 2 2 2 2 2 1 1 1 1 1 1 1 1 1 1 1 1 1 1 1
12 12 12 12 12 12 12 12 12 12 12 12 12 12 12 12 12 12 12 12 12 12 11 11 11 11 11 10 10 10 10 10 10 10 10 9 9 9 8 8 8 8 8 8 7 7 7 6 6 6 5 5 5 5 4 4 4 4 4 4 4 4 4 4 4 3 3 3 3 3 3 2 2 2 2 2 2 2 2 2 2 2 2 2 2 2 2 1 1 1 1 1 1 1 1 1 1 1 1 1 1 1 1
12 12 12 12 12 12 12 12 12 12 12 12 12 12 12 12 12 12 12 12 12 12 12 12 12 12 11 11 11 10 10 10 10 10 10 10 9 9 9 8 8 8 8 8 8 8 7 7 6 6 6 6 5 5 5 4 4 4 4 4 4 4 4 4 3 3 3 3 3 3 3 2 2 2 2 2 2 2 2 2 2 2 2 2 2 2 2 1 1 1 1 1 1 1 1 1 1 1 1 1 1 1 1
13 13 13 13 13 13 13 13 13 13 13 12 13 13 13 13 13 13 13 13 13 12 12 12 12 12 12 11 11 11 10 10 10 10 10 10 10 10 9 9 9 8 8 8 8 8 8 7 7 6 6 6 5 5 5 5 4 4 4 4 4 4 3 3 3 3 3 3 3 3 3 3 3 3 3 3 3 3 2 2 2 2 2 2 2 2 2 2 1 1 1 1 1 1 1 1 1 1 1 1 1 1 1
14 14 14 14 14 14 14 14 13 13 13 13 13 13 13 13 13 13 13 13 13 13 13 13 12 12 12 12 12 11 11 10 10 10 10 10 10 10 10 10 9 9 9 8 8 8 8 8 7 7 6 6 6 5 5 5 4 4 4 4 4 4 3 3 3 3 3 3 3 3 3 3 3 3 3 3 3 3 3 3 2 2 2 2 2 2 2 2 2 1 1 1 1 1 1 1 1 1 1 1 1 1 1
15 15 15 15 14 14 14 14 14 14 14 14 14 14 14 14 14 14 14 14 13 13 13 13 13 12 12 12 12 12 11 11 10 10 10 10 10 10 10 10 10 10 10 9 8 8 8 8 8 7 6 6 6 6 5 5 5 4 4 4 4 4 4 3 3 3 3 3 4 4 4 4 4 4 4 3 3 3 3 3 3 2 2 2 2 2 2 2 2 2 1 1 1 1 1 1 1 1 1 1 0 0 0
16 16 16 16 15 15 15 14 14 14 14 14 14 14 14 14 14 14 14 14 14 14 14 13 13 13 13 12 12 12 12 11 11 11 10 10 10 10 10 10 10 10 10 10 9 8 8 8 8 7 7 6 6 6 5 5 5 4 4 4 4 4 4 4 4 4 4 4 4 4 4 4 4 4 4 4 4 4 3 3 3 3 2 2 2 2 2 2 2 2 1 1 1 1 1 1 1 1 1 0 0 0 0
17 17 17 16 16 16 16 15 15 15 14 14 14 14 14 14 14 14 14 14 14 14 14 14 14 14 13 13 13 13 12 12 12 12 11 11 11 11 10 10 10 10 10 10 10 9 8 8 8 8 7 7 6 6 6 5 5 5 4 4 4 4 4 4 4 5 5 5 5 5 5 4 4 4 4 4 4 4 4 3 3 3 2 2 2 2 2 2 2 2 1 1 1 1 1 1 1 1 0 0 0 0 0
18 18 18 18 17 17 17 16 16 16 15 15 15 15 15 15 15 15 15 15 15 15 14 14 14 14 14 14 14 13 13 13 13 12 12 12 12 11 11 11 11 10 10 10 10 10 9 8 8 8 8 7 7 6 6 6 5 5 5 5 5 5 5 5 6 6 6 6 6 5 5 5 5 5 5 4 4 4 4 3 3 3 3 2 2 2 2 2 2 1 1 1 1 1 1 1 1 0 0 0 0 0 0
18 18 18 18 18 18 18 18 17 16 16 16 16 16 15 16 16 16 16 15 15 15 15 15 15 14 14 14 14 14 14 14 14 13 13 13 12 12 12 12 11 11 10 10 10 10 10 9 8 8 8 8 7 7 6 6 6 6 6 6 6 6 6 6 6 6 6 6 6 6 6 6 6 5 5 5 4 4 4 4 3 3 3 2 2 2 2 2 1 1 1 1 1 1 1 1 1 0 0 0 0 0 0
19 19 19 19 19 19 19 19 18 18 17 17 17 17 16 16 16 16 16 16 16 16 16 16 16 15 15 15 15 14 14 14 14 14 14 13 13 13 12 12 12 11 11 10 10 10 10 10 9 8 8 8 8 7 7 6 6 6 6 6 7 7 7 8 8 8 7 7 7 7 6 6 6 6 6 5 5 4 4 4 3 3 3 2 2 2 2 1 1 1 1 1 1 1 1 1 0 0 0 0 0 0 0
19 19 20 20 20 20 20 20 19 19 18 18 18 18 18 17 17 17 17 17 17 17 17 16 16 16 16 16 15 15 15 15 15 14 14 14 14 13 13 12 12 12 11 11 10 10 10 10 9 9 8 8 8 8 8 7 7 7 7 8 8 8 8 8 8 8 8 8 8 7 7 7 7 6 6 5 5 4 4 4 3 3 2 2 2 2 1 1 1 1 1 1 1 1 1 1 1 0 0 0 0 0 0
19 20 20 20 20 20 20 20 20 20 19 19 19 19 18 18 18 18 18 18 18 18 18 17 17 17 16 16 16 16 15 15 15 15 15 14 14 14 14 13 12 12 11 11 10 10 10 10 10 9 9 8 8 8 8 8 8 8 8 8 8 9 10 10 10 9 8 8 8 8 8 8 7 7 6 6 5 4 4 4 3 3 2 2 2 2 1 1 1 1 1 1 1 1 1 1 1 1 1 0 0 0 0
20 20 20 20 20 20 20 20 20 20 20 20 20 20 19 19 19 18 18 18 18 18 18 18 18 17 17 17 16 16 16 16 16 16 15 15 15 14 14 13 13 12 12 11 10 10 10 10 10 10 10 9 9 8 8 8 8 9 10 10 10 10 10 10 10 10 10 9 9 8 8 8 8 7 6 6 5 4 4 3 3 2 2 2 2 1 1 1 1 1 1 1 1 1 1 1 1 1 1 1 1 0 0
21 21 20 20 20 20 20 20 20 20 20 20 20 20 20 20 20 20 19 19 19 19 18 18 18 18 18 18 17 17 16 16 16 16 16 16 15 15 14 14 13 12 12 11 11 10 10 10 10 10 10 10 10 10 10 10 10 10 10 11 11 11 12 11 11 10 10 10 10 9 8 8 8 7 6 5 5 4 4 3 2 2 2 2 1 1 1 1 1 1 1 1 1 1 1 1 1 1 1 1 1 1 1
22 22 22 22 21 21 21 21 21 21 21 21 21 21 21 21 21 20 20 20 20 19 19 19 18 18 18 18 18 18 17 17 17 16 16 16 16 16 15 14 14 13 12 11 11 10 10 10 10 10 10 10 10 10 11 11 11 12 12 12 12 12 12 12 12 11 11 10 10 10 9 8 8 7 6 5 4 4 3 3 2 2 2 2 1 1 1 1 1 1 1 1 1 1 1 1 1 1 1 1 1 1 1
24 24 23 23 23 22 22 22 22 22 22 22 22 22 22 22 22 21 21 21 20 20 20 20 19 19 19 19 18 18 18 18 18 17 17 17 17 16 16 15 14 13 12 12 11 11 10 10 10 11 11 11 12 12 12 12 13 13 14 14 14 14 14 13 12 12 12 11 10 10 9 8 7 6 6 5 4 3 3 2 2 2 2 1 1 1 1 1 1 2 2 1 1 1 1 1 1 1 1 1 1 1 1
26 26 26 24 24 24 24 23 23 23 23 23 23 23 23 23 23 22 22 22 22 21 21 20 20 20 20 20 20 19 19 19 18 18 18 18 18 17 16 16 15 14 13 12 12 11 11 11 11 12 12 12 13 13 14 14 15 15 16 16 15 15 14 14 13 12 12 11 10 10 9 8 7 6 5 4 4 3 2 2 2 2 2 1 1 1 1 2 2 2 2 1 1 1 1 1 1 1 1 1 1 1 1
28 28 27 26 26 26 25 24 24 24 24 24 24 24 24 24 24 24 24 23 23 22 22 22 21 21 20 20 20 20 20 20 19 19 19 18 18 18 17 16 16 14 14 13 12 12 12 12 12 12 13 14 14 15 16 16 17 18 18 17 17 16 15 14 14 13 12 11 10 10 8 8 6 5 4 4 3 2 2 2 2 2 2 2 2 2 2 2 2 2 2 1 1 1 1 1 1 1 1 1 1 1 1
30 30 29 29 28 27 27 26 26 26 26 26 26 26 26 26 26 25 25 24 24 24 23 23 22 22 21 21 21 20 20 20 20 20 19 19 19 18 18 17 16 15 14 14 13 13 13 13 14 14 15 16 16 18 18 19 20 20 20 19 18 17 16 15 14 13 12 11 10 9 8 7 6 5 4 3 3 2 2 2 2 2 2 2 2 2 2 2 2 2 1 1 1 1 1 1 1 1 1 1 1 1 1
31 31 31 30 30 29 29 28 28 27 27 27 27 27 27 27 27 27 26 26 26 25 24 24 24 23 22 22 21 21 21 20 20 20 20 19 19 18 18 17 16 15 15 14 14 14 14 14 15 16 17 18 19 20 21 22 22 22 21 20 19 18 16 15 14 13 12 11 10 8 7 6 5 4 4 3 2 2 2 2 2 2 2 2 2 2 2 2 2 1 1 1 1 1 1 1 1 1 1 1 1 1 1
32 32 32 32 32 31 31 30 29 29 29 29 29 29 29 29 29 29 28 28 27 26 26 25 24 24 23 22 22 22 21 21 20 20 20 19 18 18 17 16 16 16 15 15 15 15 15 16 17 18 19 20 22 23 24 24 24 24 23 21 20 18 17 16 14 13 12 10 9 8 6 6 4 4 3 2 2 2 2 2 2 2 2 2 2 2 2 1 1 1 1 1 1 1 1 1 1 1 1 1 1 1 1
32 33 33 34 34 33 32 32 31 31 30 30 31 31 31 31 31 31 30 30 29 28 27 26 26 24 24 24 23 22 22 21 20 20 19 18 18 17 17 16 16 16 16 16 16 16 17 18 19 20 22 23 24 26 26 26 26 25 24 22 20 18 17 15 14 12 11 10 8 7 6 5 4 3 3 2 2 2 2 2 2 2 2 2 2 2 2 1 1 1 1 1 1 1 1 1 1 1 1 1 1 1 1
32 33 34 34 35 35 34 34 33 32 32 32 32 33 33 33 33 33 32 32 31 30 28 27 26 26 25 24 24 22 22 21 20 19 18 18 18 17 17 17 16 16 16 16 17 18 18 20 21 23 24 26 27 28 29 28 27 26 24 22 20 18 16 14 13 11 10 8 7 6 5 4 4 3 2 2 2 2 2 2 2 2 2 2 2 2 1 1 1 1 2 2 2 2 2 2 2 1 1 1 1 1 1
32 33 34 35 36 36 36 36 35 34 34 34 34 34 35 35 35 34 34 33 32 32 30 29 28 27 26 25 24 23 22 20 20 19 18 18 18 18 18 18 18 17 17 17 18 19 20 22 24 26 27 29 30 31 31 30 28 26 24 22 20 17 15 13 12 10 8 8 6 5 4 4 3 3 2 2 2 2 2 2 2 2 2 2 2 1 1 1 1 2 2 2 2 2 2 2 2 2 2 2 2 2 2
31 32 34 35 36 37 37 37 36 36 36 36 36 36 36 36 36 36 35 34 34 33 32 31 30 28 27 26 24 23 22 20 20 19 18 18 18 19 19 19 19 18 18 19 19 20 22 24 26 28 30 32 33 33 33 31 28 26 24 21 18 16 14 12 10 10 8 7 6 5 4 3 3 2 2 2 2 2 2 2 2 2 2 2 1 1 2 2 2 2 2 2 2 2 2 2 2 2 2 2 2 2 2
31 32 34 35 36 38 38 38 38 38 37 37 37 38 38 38 38 37 36 36 35 34 34 33 31 30 28 27 26 24 22 21 20 20 20 20 20 20 20 20 20 20 20 20 21 22 24 26 28 32 34 35 36 35 33 31 28 25 22 20 17 15 13 11 10 8 7 6 5 4 4 3 3 2 2 2 2 2 2 2 2 2 2 2 2 2 2 2 2 2 2 2 2 2 2 2 2 2 2 2 2 2 2
31 32 33 35 36 38 39 40 40 39 39 39 39 40 40 40 39 39 38 37 36 36 35 34 33 32 30 28 26 24 23 22 22 21 21 21 21 21 22 22 22 22 22 22 23 24 26 28 31 34 37 38 37 36 34 30 27 24 21 19 16 14 12 10 9 8 6 5 4 4 3 3 3 3 3 3 3 2 2 2 2 2 2 2 2 2 2 2 2 2 2 2 3 3 3 3 3 3 3 3 3 3 3
30 32 33 35 37 38 40 40 40 40 40 40 40 41 42 41 40 40 39 39 38 38 37 36 35 33 31 29 27 26 24 24 23 22 22 22 22 22 22 22 23 23 24 24 25 26 28 30 34 36 39 39 38 36 33 30 26 23 20 18 16 13 11 10 8 7 6 5 4 3 3 3 3 3 3 3 3 3 2 2 2 2 2 2 2 2 2 2 2 2 3 3 3 4 4 4 4 4 4 4 3 3 3
30 31 33 35 37 39 40 42 42 42 42 42 42 42 43 42 42 42 40 40 40 39 39 38 37 35 33 31 29 27 26 26 24 24 23 23 23 22 22 23 24 24 24 26 26 28 29 32 35 38 40 40 39 36 33 29 26 22 20 17 14 12 10 8 7 6 5 4 4 3 3 3 3 3 4 3 3 3 2 2 2 2 2 2 2 2 2 2 3 3 3 4 4 4 4 4 4 4 4 4 4 4 3
30 31 33 35 37 39 41 42 42 42 42 43 43 44 44 44 43 42 42 41 40 40 40 40 39 37 35 33 31 29 28 27 26 26 24 24 24 24 24 24 25 26 26 26 28 29 31 33 36 39 41 40 39 36 32 28 24 21 18 16 13 10 8 8 6 5 4 4 3 3 3 3 4 4 4 4 3 2 2 2 2 2 2 2 2 2 2 3 3 4 4 5 6 6 6 6 6 5 5 5 5 4 4
30 31 33 35 37 40 42 43 44 44 44 44 44 45 46 45 44 44 43 42 42 42 42 42 42 40 38 36 34 32 30 29 28 26 26 26 25 26 26 27 27 27 27 27 28 30 32 34 36 40 42 41 39 35 31 26 23 20 17 14 11 10 8 6 6 5 4 4 3 3 4 4 4 4 4 4 3 2 2 2 2 2 2 2 2 2 3 3 4 5 6 6 7 8 8 7 7 6 6 6 6 6 6
30 31 33 35 38 40 42 44 44 44 44 45 46 46 47 47 46 46 45 45 44 44 44 44 44 42 41 39 37 35 32 30 29 28 27 27 26 26 26 28 28 28 28 29 30 30 32 34 36 39 42 42 39 34 30 25 21 18 15 12 10 8 7 6 5 4 4 4 3 4 4 4 5 5 4 4 3 2 2 2 2 2 2 2 2 3 3 4 5 6 7 8 8 9 9 8 8 8 7 7 6 7 10
30 32 33 35 38 41 43 45 46 46 45 46 47 48 49 49 49 48 48 47 46 46 45 45 46 45 44 42 40 37 35 32 30 29 27 27 28 28 28 29 30 30 30 31 32 32 33 35 38 40 42 42 38 34 28 23 19 16 13 10 8 7 6 5 4 4 4 4 4 4 4 5 5 5 4 4 3 2 2 2 2 3 3 3 3 4 4 5 6 7 8 9 10 10 10 10 10 8 8 7 7 8 11
31 32 33 36 38 42 44 46 46 46 46 47 48 50 51 52 52 51 51 50 49 48 47 47 46 47 47 45 42 40 36 34 32 30 29 28 30 31 32 32 32 32 31 32 34 35 35 36 40 42 44 42 38 33 26 22 18 15 12 10 8 6 6 5 4 4 4 4 4 4 5 5 5 5 4 3 3 2 2 3 3 3 4 4 4 4 5 6 7 8 9 10 10 11 11 11 10 9 8 8 11 14 10
32 32 34 36 39 42 45 47 48 48 48 48 49 51 53 54 54 55 54 53 52 50 50 49 48 48 48 47 44 42 38 35 33 31 30 30 31 32 36 36 35 34 32 32 33 35 37 38 40 43 45 42 38 32 26 21 16 13 11 8 7 6 5 4 4 4 4 4 4 5 6 6 6 5 4 3 3 2 3 3 4 4 4 4 5 6 6 7 8 9 10 10 11 12 12 11 10 10 8 8 8 8 6
32 33 34 37 40 43 46 48 49 49 49 49 51 52 54 56 58 58 58 56 55 53 52 51 50 50 49 48 46 42 39 36 34 33 32 32 33 34 36 38 39 39 39 38 37 38 39 40 42 44 44 42 38 31 24 20 15 12 10 8 6 5 4 4 4 4 4 4 5 5 6 6 6 5 4 3 3 3 4 4 5 5 5 5 6 7 8 8 10 10 10 11 12 12 12 12 11 10 10 8 8 7 6
33 34 35 37 40 44 47 49 50 50 50 51 52 54 56 58 60 60 60 59 57 56 54 53 53 52 50 49 46 43 40 37 35 34 34 35 36 36 38 39 41 42 43 43 43 42 42 42 44 45 44 43 38 30 23 18 14 11 8 7 6 5 4 4 4 4 5 5 6 6 6 6 6 5 4 3 3 4 4 5 6 6 6 6 7 8 10 10 10 11 12 12 12 12 12 12 11 10 10 8 8 8 7
34 35 36 38 42 45 48 50 51 51 51 52 54 56 58 60 62 62 62 61 60 58 57 56 54 53 51 49 46 43 40 39 38 36 37 38 39 40 40 42 42 42 42 43 44 46 47 46 46 45 44 42 38 32 23 17 13 10 8 6 5 4 4 4 4 5 5 6 6 6 7 7 6 5 4 4 4 4 6 6 7 7 7 8 8 10 10 12 12 13 13 13 13 12 12 12 11 10 10 9 8 8 8
36 36 37 40 42 46 49 51 52 52 52 54 56 58 60 62 64 64 64 63 62 60 58 57 56 54 52 49 47 44 42 41 40 40 40 40 42 42 44 45 46 46 46 45 46 48 49 50 48 46 45 42 37 32 26 18 12 8 7 6 5 4 4 5 5 6 6 6 7 7 8 7 6 5 4 4 4 5 7 8 8 8 8 9 10 11 12 13 14 14 15 14 14 13 12 12 11 10 10 8 8 7 4
37 38 38 40 44 47 50 52 52 53 54 56 58 60 62 64 65 65 65 64 62 61 60 58 57 54 52 50 48 46 44 44 43 43 43 44 45 45 46 48 49 50 50 50 51 52 52 51 50 47 45 40 35 29 24 19 13 8 6 5 4 4 4 5 6 7 7 8 8 8 8 7 6 6 5 5 6 6 8 9 10 10 10 10 11 12 14 15 16 16 16 16 16 15 13 12 11 10 8 7 6 5 2
39 39 40 42 46 49 52 53 54 54 56 58 60 62 64 66 66 66 65 64 63 62 60 59 58 55 53 51 49 48 47 47 46 46 46 48 48 48 48 50 51 52 53 54 55 56 56 54 51 48 44 40 34 28 22 17 13 9 6 5 4 4 5 6 7 8 8 9 9 9 8 8 7 6 6 6 7 8 9 10 11 12 12 12 13 14 15 16 17 18 18 18 18 16 15 13 11 9 7 6 6 6 8
Wind_Speed
23 23 23 23 24 24 24 25 25 25 26 26 26 27 27 28 28 28 29 29 29 30 30 30 30 31 31 31 32 32 33 33 34 34 34 35 35 35 36 36 37 37 38 38 38 39 39 40 40 40 40 41 41 41 41 41 42 42 42 43 43 43 44 44 44 45 45 46 46 46 47 47 47 47 47 48 47 47 47 47 47 48 48 49 50 50 51 52 52 52 52 52 52 52 52 52 52 52 52 53 53 54 54
23 23 23 24 24 24 25 25 25 26 26 26 27 27 28 28 28 29 29 30 30 30 31 31 31 31 32 32 32 33 33 34 34 34 35 35 36 36 36 37 37 38 38 39 39 40 40 41 41 41 42 42 42 42 43 43 43 43 44 44 44 45 45 45 46 46 46 47 47 47 48 48 48 49 49 49 49 50 50 50 50 50 50 50 50 51 52 53 54 54 54 54 54 54 54 54 54 54 54 54 54 55 55
23 23 24 24 24 24 25 25 25 26 26 27 27 27 28 28 29 29 30 30 30 31 31 32 32 32 33 33 33 34 34 34 35 35 36 36 36 37 37 38 38 38 39 39 40 41 41 42 42 42 43 43 44 44 44 45 45 45 45 46 46 46 46 47 47 47 48 48 48 48 49 49 49 50 50 50 51 51 51 52 52 52 52 52 52 52 53 53 54 55 56 56 56 56 56 56 55 55 55 55 55 56 56
23 23 23 24 24 24 25 25 25 26 26 26 27 27 28 28 29 29 30 30 30 31 31 32 32 33 33 33 34 34 35 35 35 36 36 37 37 37 38 38 39 39 40 40 41 41 42 42 43 43 44 44 45 45 46 46 46 47 47 47 48 48 48 48 49 49 49 49 50 50 50 50 50 51 51 51 52 52 53 53 53 54 54 54 54 54 54 55 55 56 57 58 58 58 58 58 58 57 57 57 57 57 57
23 23 23 23 24 24 24 24 25 25 26 26 26 27 27 28 28 29 29 30 30 31 31 32 32 33 33 33 34 34 35 35 36 36 37 37 38 38 38 39 39 40 40 41 41 42 42 43 43 44 44 45 46 46 46 47 47 48 48 49 49 49 50 50 50 51 51 51 51 51 52 52 52 52 52 52 53 53 53 54 54 55 55 56 56 57 57 57 57 57 58 59 60 60 60 60 60 60 60 59 59 59 59
22 22 23 23 23 23 24 24 24 25 25 26 26 26 27 27 28 28 29 29 30 30 31 31 32 32 33 33 34 34 35 35 36 36 37 37 38 38 39 39 40 40 41 41 42 42 43 43 44 44 45 46 46 47 47 48 48 49 49 49 50 50 51 51 52 52 52 53 53 53 53 53 53 54 54 54 54 54 54 54 55 55 56 57 57 58 59 59 59 59 60 60 61 62 62 62 63 62 62 62 61 61 61
22 22 22 23 23 23 23 24 24 24 25 25 26 26 26 27 27 28 28 29 29 30 30 31 31 32 32 33 34 34 35 35 36 36 37 38 38 39 39 40 40 41 41 41 42 42 43 44 44 45 46 46 47 47 48 48 49 49 50 50 51 51 52 52 53 53 54 54 54 54 55 55 55 55 55 56 56 56 56 56 56 56 56 57 58 58 59 60 61 61 61 62 62 63 64 64 65 65 65 65 64 63 63
22 22 22 23 23 23 23 24 24 24 25 25 26 26 27 27 28 28 28 29 29 30 30 31 31 32 32 33 34 34 35 35 36 37 37 38 38 39 39 40 41 41 42 42 43 43 44 44 45 46 46 47 47 48 48 49 49 50 50 51 51 52 53 53 54 54 55 55 55 56 56 57 57 57 57 58 58 58 58 58 58 58 58 58 58 59 59 60 61 62 63 63 64 64 65 66 66 67 67 67 67 67 66
22 23 23 23 23 24 24 24 25 25 25 26 26 26 27 27 28 28 29 29 30 30 31 31 32 32 33 33 34 34 35 36 36 37 37 38 39 39 40 41 41 42 42 43 43 44 45 45 46 46 47 47 48 49 49 49 50 50 51 51 52 53 53 54 55 55 56 56 57 57 58 58 58 59 59 60 60 60 60 60 61 61 61 60 60 60 60 61 61 62 63 64 65 66 66 67 68 69 69 69 69 69 69
23 24 24 24 24 25 25 25 25 26 26 26 27 27 28 28 28 29 30 30 31 31 31 32 32 33 33 34 34 35 36 36 37 37 38 38 39 40 41 41 42 43 43 44 44 45 45 46 47 47 48 48 49 49 50 50 51 51 52 52 53 53 54 55 56 56 57 57 58 58 59 59 60 60 61 61 62 62 62 63 63 63 63 63 63 63 63 63 63 63 64 65 65 66 67 68 69 70 71 72 72 72 72
24 25 25 25 26 26 26 26 27 27 27 27 28 28 28 29 29 30 30 31 31 32 32 33 33 34 34 35 35 36 36 37 37 38 38 39 40 40 41 42 43 43 44 45 45 46 46 47 48 48 49 49 50 50 51 51 52 52 53 53 54 54 55 56 56 57 58 58 59 59 60 60 61 62 62 63 63 64 64 65 65 65 66 66 66 66 66 66 66 66 66 66 67 67 68 68 69 71 72 73 74 74 74
26 26 26 27 27 27 27 28 28 28 28 29 29 29 29 30 30 31 31 32 32 33 33 34 34 34 35 35 36 36 37 37 38 38 39 40 40 41 42 42 43 44 45 45 46 47 47 48 48 49 49 50 51 51 52 52 53 53 54 54 55 55 56 56 57 58 58 59 60 60 61 61 62 63 63 64 64 65 66 66 67 67 67 68 69 69 69 69 69 69 69 69 69 69 69 69 70 71 72 74 75 76 77
27 27 28 28 28 29 29 29 29 30 30 30 30 30 31 31 31 32 32 33 33 34 34 35 35 36 36 36 37 37 38 38 39 39 40 40 41 42 42 43 44 44 45 46 47 47 48 49 49 50 50 51 52 52 53 53 54 54 55 55 56 56 56 57 58 58 59 60 61 61 62 63 63 64 64 65 66 66 67 68 68 69 69 70 70 71 71 72 72 72 72 72 72 72 72 72 72 72 73 74 75 77 78
29 29 29 29 30 30 30 31 31 31 31 32 32 32 32 33 33 33 34 34 34 35 35 36 36 37 37 38 38 39 39 39 40 40 41 41 42 43 43 44 44 45 46 47 47 48 49 49 50 51 51 52 52 53 54 54 55 55 56 56 57 57 58 58 59 59 60 61 61 62 63 63 64 65 66 66 67 68 68 69 70 70 71 71 72 72 73 74 74 75 75 75 75 75 75 75 75 75 75 75 75 77 79
30 30 31 31 31 32 32 32 32 33 33 33 33 34 34 34 34 35 35 35 36 36 37 37 38 38 39 39 40 40 40 41 41 42 42 43 43 44 44 45 45 46 47 47 48 49 49 50 51 51 52 53 53 54 54 55 56 56 57 57 58 58 59 59 60 60 61 61 62 63 64 64 65 66 66 67 68 69 70 71 71 72 73 73 74 74 75 75 76 77 77 78 78 78 78 78 78 78 78 78 77 78 79
32 32 32 32 33 33 33 34 34 34 34 35 35 35 35 36 36 36 37 37 37 38 38 39 39 39 40 40 41 41 42 42 43 43 44 44 45 45 46 46 47 47 48 48 49 50 50 51 52 52 53 54 54 55 56 56 57 57 58 59 59 60 60 61 61 62 62 63 63 64 64 65 66 67 67 68 69 70 71 72 73 74 74 75 76 76 77 77 78 79 79 80 80 81 81 81 81 81 81 81 81 80 80
33 33 34 34 34 34 35 35 35 35 36 36 36 36 37 37 37 38 38 39 39 39 40 40 40 41 41 42 42 43 43 44 44 45 45 46 46 47 47 48 48 49 49 50 50 51 51 52 53 53 54 55 55 56 57 57 58 59 59 60 60 61 62 62 62 63 64 64 65 65 66 67 67 68 69 69 70 71 72 73 74 75 76 77 78 79 79 80 80 81 82 82 83 83 84 84 84 84 84 84 84 84 84
34 35 35 35 35 36 36 36 36 36 37 37 37 37 38 38 38 39 39 40 40 41 41 42 42 42 43 43 44 44 44 45 46 46 47 47 48 48 49 49 50 50 51 51 52 52 53 53 54 55 55 56 57 57 58 58 59 60 60 61 62 62 63 63 64 65 65 66 66 67 68 68 69 70 71 71 72 73 74 75 76 77 78 79 80 81 81 82 83 84 84 85 85 86 86 87 87 88 88 87 88 87 87
35 36 36 36 37 37 37 37 37 38 38 38 38 38 39 39 39 40 40 41 41 42 42 43 43 44 44 45 45 45 46 46 47 47 48 49 49 50 50 51 52 52 53 53 54 54 55 55 56 56 57 57 58 58 59 60 60 61 62 62 63 64 64 65 66 66 67 67 68 69 70 70 71 72 73 74 75 75 76 77 78 79 80 81 82 83 84 85 85 86 87 88 88 89 89 90 90 91 91 91 91 91 91
36 36 37 37 37 38 38 38 38 38 39 39 39 39 40 40 40 41 41 42 42 43 43 44 44 45 45 46 46 47 47 48 48 49 49 50 51 51 52 52 53 54 54 55 55 56 56 57 57 58 58 59 59 60 61 61 62 62 63 64 64 65 66 66 67 68 68 69 70 71 71 72 73 74 75 76 77 78 79 80 81 82 83 84 85 85 86 87 88 89 90 91 91 92 93 93 94 94 94 94 94 94 94
37 37 37 38 38 38 39 39 39 39 39 40 40 40 40 41 41 42 42 43 43 44 44 45 45 46 46 47 47 48 49 49 50 50 51 51 52 53 53 54 55 55 56 56 57 58 58 59 59 60 60 61 61 62 62 63 63 64 65 65 66 67 67 68 69 69 70 71 72 72 73 74 75 76 77 78 79 80 81 82 83 84 85 86 87 88 89 90 91 92 93 94 95 95 96 97 98 98 98 98 98 98 98
37 38 38 38 39 39 39 39 40 40 40 40 41 41 41 41 42 42 43 43 44 44 45 46 46 47 47 48 49 49 50 50 51 52 52 53 54 54 55 55 56 57 57 58 59 59 60 60 61 62 62 62 63 63 64 65 65 66 66 67 68 68 69 70 70 71 72 73 73 74 75 76 77 78 79 80 81 82 83 84 84 85 86 87 89 90 91 92 93 94 96 97 98 99 100 101 101 102 102 102 102 102 102
38 38 39 39 39 39 40 40 40 40 41 41 41 41 42 42 43 43 44 44 45 45 46 46 47 48 48 49 49 50 51 51 52 53 54 54 55 56 56 57 58 58 59 59 60 61 61 62 63 63 64 64 65 65 66 66 67 68 68 69 70 70 71 71 72 73 73 74 75 76 77 78 79 79 81 81 82 83 84 85 86 87 88 89 91 92 93 95 96 97 98 100 101 102 103 104 105 106 106 106 106 106 105
38 39 39 39 40 40 40 41 41 41 41 42 42 42 42 43 43 44 44 45 45 46 47 47 48 48 49 50 50 51 52 52 53 54 55 56 56 57 58 58 59 60 60 61 61 62 63 64 64 65 65 66 67 67 68 68 69 69 70 71 71 72 72 73 74 74 75 76 76 77 78 79 80 81 82 83 84 85 86 87 88 89 90 92 93 94 96 97 99 100 102 103 105 106 107 108 108 109 109 108 108 108 108
39 39 39 40 40 41 41 41 41 42 42 42 42 43 43 43 44 44 45 46 46 47 47 48 49 49 50 50 51 52 53 53 54 55 56 56 57 58 59 60 60 61 61 62 63 63 64 65 66 66 67 68 68 69 69 70 70 71 72 72 73 73 74 74 75 75 76 77 77 78 79 80 81 82 83 85 86 87 88 89 90 91 93 94 96 97 99 101 102 104 106 108 109 110 111 111 111 110 110 109 109 109 109
39 40 40 40 41 41 41 42 42 42 43 43 43 43 44 44 45 45 46 46 47 48 48 49 49 50 51 51 52 53 53 54 55 56 56 57 58 59 60 61 61 62 63 63 64 65 65 66 67 67 68 69 69 70 71 71 72 72 73 74 74 75 75 75 76 76 77 78 78 79 80 81 83 84 85 86 87 88 89 91 92 93 95 97 99 101 102 104 106 108 110 112 113 113 113 112 111 110 109 109 108 109 109
40 40 41 41 41 42 42 42 43 43 43 44 44 44 45 45 45 46 47 47 48 48 49 49 50 51 51 52 53 54 54 55 56 57 57 58 59 60 61 61 62 63 64 64 65 66 66 67 68 69 69 70 70 71 72 72 73 73 74 74 75 75 76 76 76 77 78 78 79 80 82 83 84 85 86 87 89 90 91 92 94 96 97 99 102 104 106 108 110 112 114 114 115 114 113 112 110 109 107 107 107 107 108
40 41 41 41 42 42 43 43 43 43 44 44 45 45 45 46 46 47 47 48 48 49 50 50 51 52 52 53 54 55 55 56 57 58 58 59 60 60 61 62 63 64 64 65 66 67 67 68 69 69 70 71 71 72 72 73 73 74 74 75 75 76 76 76 77 78 78 79 81 82 83 84 85 87 88 89 90 91 93 94 96 98 100 102 104 107 109 111 113 115 116 116 115 113 111 109 108 106 105 105 105 106 107
41 41 42 42 42 43 43 44 44 44 45 45 45 46 46 47 47 48 48 49 49 50 50 51 52 52 53 54 55 55 56 57 58 58 59 60 60 61 62 63 63 64 65 66 66 67 68 69 70 70 71 71 72 72 73 73 74 74 75 75 76 76 76 77 78 78 79 80 82 83 84 86 87 88 89 91 92 93 95 96 98 100 102 105 107 110 112 114 116 116 116 115 113 111 108 106 105 103 103 103 103 104 105
41 42 42 43 43 44 44 44 45 45 45 46 46 47 47 48 48 49 49 49 50 50 51 52 52 53 54 54 55 56 57 57 58 59 60 60 61 62 62 63 64 65 65 66 67 68 69 69 70 71 71 72 72 73 73 74 74 75 75 76 76 77 77 78 78 79 80 82 83 84 86 87 89 90 91 92 94 95 97 99 101 103 105 107 110 112 114 115 116 115 114 112 109 107 105 103 101 100 100 100 101 102 103
42 42 43 43 44 44 45 45 46 46 47 47 47 48 48 49 49 49 50 50 51 51 52 52 53 54 55 55 56 56 57 58 59 59 60 61 61 62 63 63 64 65 66 67 68 68 69 70 71 71 72 72 73 73 74 74 75 75 76 76 77 77 78 79 79 80 82 83 84 86 87 89 90 92 93 94 96 97 99 101 103 105 107 110 112 114 115 115 114 113 110 108 105 103 101 99 98 97 97 98 99 100 102
42 43 44 44 45 45 46 46 47 47 48 48 48 49 49 49 50 50 50 51 51 52 52 53 54 54 55 56 56 57 58 58 59 60 60 61 62 62 63 64 64 65 66 67 68 69 70 70 71 72 72 73 73 74 74 75 75 76 76 77 77 78 79 80 81 82 83 84 85 87 89 90 92 93 95 97 98 100 102 104 106 108 110 112 113 114 114 113 111 108 106 103 100 98 97 95 95 94 95 95 97 98 100
43 44 44 45 46 46 47 47 48 48 49 49 49 50 50 50 50 51 51 52 52 53 53 54 54 55 56 56 57 57 58 59 59 60 61 61 62 62 63 64 65 66 66 67 68 69 70 71 72 72 73 74 74 75 75 76 76 76 77 78 78 79 80 81 82 83 84 85 87 88 90 92 94 95 97 99 100 102 104 106 108 110 111 113 113 113 111 109 106 103 101 98 96 95 93 93 92 92 93 94 95 96 98
45 45 45 46 47 47 47 48 49 49 49 50 50 51 51 51 51 52 52 52 53 53 54 54 55 56 56 57 57 58 59 59 60 60 61 62 62 63 63 64 65 66 67 68 69 70 70 71 72 73 74 74 75 75 76 76 77 77 78 78 79 80 81 82 83 84 85 87 88 90 92 94 95 97 99 101 103 105 107 108 110 112 113 113 112 110 107 104 101 98 96 94 93 92 91 91 91 91 91 92 93 95 97
46 46 47 47 48 48 48 49 49 50 50 51 51 51 52 52 52 52 53 53 54 54 55 55 56 56 57 57 58 59 59 60 60 61 61 62 62 63 64 64 65 66 67 68 69 70 71 72 73 73 74 75 75 76 76 77 77 78 79 79 80 81 82 83 85 86 87 89 90 92 94 95 97 99 101 103 105 107 109 110 112 113 113 112 110 107 103 99 96 94 93 92 91 90 90 90 90 90 91 92 93 94 96
47 48 48 49 49 49 50 50 50 51 51 52 52 52 52 53 53 53 53 54 54 55 55 56 56 57 57 58 59 59 60 60 61 61 62 62 63 63 64 65 66 66 67 68 69 70 71 72 73 74 75 75 76 76 77 77 78 79 80 81 82 83 84 85 86 87 89 90 92 94 95 97 99 101 103 105 107 108 110 111 112 112 112 110 107 103 99 95 93 91 91 90 90 90 89 89 89 90 91 91 92 93 95
48 49 49 50 50 51 51 51 51 52 52 52 53 53 53 53 54 54 54 54 55 55 56 56 57 57 58 59 59 60 60 61 61 62 62 63 63 64 65 65 66 67 68 69 70 71 72 73 74 74 75 75 76 77 77 78 79 80 81 82 83 85 86 87 88 89 91 92 94 96 97 99 101 103 105 107 108 110 111 112 112 111 109 106 103 99 95 92 91 90 90 90 90 90 90 89 89 90 91 91 92 93 95
49 50 50 51 51 52 52 52 53 53 53 53 53 54 54 54 54 54 55 55 55 56 56 57 57 58 59 59 60 60 61 61 62 62 63 63 64 65 65 66 67 68 69 70 71 72 72 73 74 74 75 76 76 77 78 79 80 81 82 84 85 86 87 89 90 91 92 94 95 97 99 101 103 105 107 108 110 111 112 112 111 109 106 102 99 95 93 91 90 90 90 90 90 90 90 90 90 90 90 91 92 93 94
50 51 51 52 52 53 53 53 54 54 54 54 54 55 55 55 55 55 55 55 56 56 57 57 58 58 59 59 60 61 61 62 62 63 64 64 65 65 66 66 67 68 69 70 71 72 72 73 74 74 75 76 77 78 79 80 81 83 84 85 87 88 89 90 92 93 94 96 97 99 101 103 105 107 108 110 111 111 111 110 108 106 102 99 96 93 92 91 90 90 90 90 90 90 90 89 89 89 90 91 92 93 94
51 52 52 53 53 53 54 54 54 55 55 55 55 55 55 55 55 56 56 56 56 56 57 57 58 59 59 60 60 61 61 62 63 63 64 65 65 66 66 67 68 69 70 70 71 72 72 72 73 74 75 76 77 79 80 81 83 84 86 87 88 90 91 92 93 95 96 97 99 101 102 104 106 108 109 111 111 111 110 108 106 103 99 96 93 92 91 91 90 90 89 89 89 89 89 89 88 88 89 89 90 91 93
52 52 53 53 54 54 54 55 55 55 56 56 56 56 56 56 56 56 56 56 56 57 57 57 58 59 59 60 60 61 62 62 63 64 64 65 65 66 66 67 68 69 69 70 70 71 71 72 73 74 76 77 78 80 81 83 84 86 87 88 90 91 93 94 95 96 98 99 101 102 104 106 107 109 110 111 110 109 108 106 103 99 96 94 92 91 91 90 90 89 88 88 88 88 87 87 87 87 87 87 88 89 90
52 53 53 54 54 55 55 55 55 56 56 56 56 56 56 56 56 56 57 57 57 57 57 58 58 59 60 60 61 61 62 63 63 63 64 64 65 65 66 67 68 68 69 69 69 70 70 72 73 75 76 78 79 81 83 84 86 87 88 90 91 92 94 95 96 98 99 100 102 103 105 107 108 109 110 110 109 107 105 103 100 97 95 93 92 91 91 90 89 88 87 86 86 86 86 85 85 85 85 85 86 87 88
53 53 54 55 55 55 56 56 56 56 57 57 57 57 57 57 57 57 57 57 57 57 58 58 59 59 60 60 61 62 62 62 63 63 63 64 64 65 66 66 67 67 68 68 68 69 70 72 73 75 77 79 80 82 84 85 87 88 89 91 92 93 95 96 97 98 100 101 103 104 106 107 109 109 109 108 107 105 102 100 97 95 94 92 92 92 91 90 89 87 86 85 84 84 84 83 83 83 83 83 83 84 85
53 54 55 55 56 56 56 56 57 57 57 57 57 57 57 57 57 57 57 57 57 58 58 58 59 60 60 61 61 62 62 62 62 63 63 63 64 64 65 66 66 66 67 67 68 69 71 72 74 76 78 80 81 83 85 86 88 89 90 92 93 94 95 97 98 99 101 102 104 105 107 108 108 108 107 106 104 102 100 97 95 94 93 92 92 91 91 90 88 86 85 83 82 81 81 81 81 81 80 80 80 81 82
54 55 55 56 56 57 57 57 57 58 58 58 58 58 58 58 57 57 57 58 58 58 58 59 59 60 61 61 62 62 62 62 62 62 62 63 64 64 65 65 66 66 67 68 69 70 71 73 75 77 79 80 82 84 85 87 88 90 91 92 93 95 96 97 98 100 101 103 104 106 107 108 108 107 106 104 102 100 98 96 94 93 92 92 91 91 90 89 87 85 83 81 80 79 79 79 79 78 78 77 77 78 80
54 55 56 56 57 57 58 58 58 58 58 58 58 58 58 58 58 58 58 58 58 58 59 59 60 60 61 61 62 62 62 62 62 62 63 63 64 65 65 66 66 66 67 68 69 71 72 74 76 77 79 81 83 84 86 87 89 90 91 93 94 95 96 98 99 101 102 103 105 106 107 107 106 105 104 102 100 98 96 95 93 92 92 91 90 90 89 87 86 83 81 79 77 77 76 76 76 76 75 74 75 76 78
55 55 56 57 58 58 58 58 58 59 59 58 58 58 58 58 58 58 58 58 58 59 59 59 60 60 61 61 62 62 62 62 62 63 64 64 65 65 66 66 66 67 68 69 70 72 73 75 76 78 80 82 83 85 86 87 89 90 91 93 94 96 97 98 100 101 102 104 105 106 106 106 105 104 102 100 98 97 95 94 93 92 91 90 89 88 87 85 83 80 78 76 74 73 73 74 74 73 72 72 73 74 76
55 56 57 58 58 59 59 59 59 59 59 59 59 59 59 58 58 58 58 58 58 59 59 59 60 60 61 61 61 62 62 62 63 63 64 65 66 66 66 66 67 67 68 70 71 73 74 76 77 79 81 82 84 85 86 88 89 90 92 93 95 96 97 98 100 101 102 103 104 105 105 104 103 102 100 98 96 95 94 94 93 92 90 89 87 85 84 82 79 76 74 71 70 69 70 70 70 70 69 70 71 72 74
56 57 58 58 59 59 60 60 60 59 59 59 59 59 59 59 59 58 58 59 59 59 60 60 60 60 61 61 61 62 62 63 64 64 65 65 66 66 66 66 67 68 69 70 72 74 75 76 78 80 81 83 84 85 87 88 89 91 92 94 95 96 97 98 99 100 102 103 103 103 103 102 101 99 98 96 94 94 93 93 92 91 89 87 85 82 80 77 74 71 69 67 65 65 65 66 67 67 67 68 69 70 71
57 57 58 59 60 60 60 60 60 60 60 60 59 59 59 59 59 59 59 59 59 60 60 61 61 61 61 62 62 63 63 64 65 66 66 66 66 66 67 67 67 68 69 71 73 74 76 77 79 80 82 83 84 86 87 88 90 91 93 94 95 96 97 98 99 100 101 101 102 102 101 100 98 97 95 93 93 92 92 91 91 89 88 85 82 79 75 72 69 66 63 62 61 61 61 62 63 64 64 65 67 68 70
57 58 59 59 60 60 61 61 60 60 60 60 60 60 59 59 59 59 59 60 60 60 61 61 62 62 62 63 64 64 65 66 67 67 67 68 67 67 67 67 67 68 69 71 73 75 76 78 79 80 82 84 85 86 88 89 90 92 93 94 95 96 97 98 98 99 100 100 100 100 98 97 95 94 92 91 90 90 90 89 89 87 85 82 79 75 71 67 63 61 58 57 56 57 58 59 60 61 62 63 64 66 68
58 58 59 60 60 61 61 61 61 61 60 60 60 60 60 59 60 60 60 60 61 61 61 62 62 63 63 64 65 66 66 67 68 69 69 69 69 69 68 68 68 69 70 71 73 75 76 78 79 80 82 84 86 87 88 89 90 91 92 94 95 95 96 97 98 98 99 99 99 97 96 94 92 91 89 89 88 88 88 87 86 85 82 79 75 71 66 62 59 56 54 53 53 53 54 56 58 59 59 60 61 63 66
58 59 59 60 61 61 61 61 61 61 60 60 60 60 60 60 60 60 60 61 61 62 62 63 63 64 65 65 66 66 67 68 69 70 70 70 70 70 69 69 69 70 71 73 75 76 77 78 80 81 82 84 86 87 88 89 90 91 92 93 94 95 96 96 97 97 98 97 97 95 94 92 90 88 87 87 86 86 85 84 83 81 79 75 71 66 62 58 55 53 51 50 49 50 51 53 55 57 57 57 59 61 64
58 59 60 60 61 61 61 61 61 61 61 60 60 60 60 60 60 60 61 61 62 62 63 64 64 65 65 66 66 67 68 69 70 70 71 71 71 71 71 71 71 71 72 73 75 77 78 79 80 81 83 84 86 87 87 88 89 90 92 93 94 94 95 95 96 96 96 96 95 93 91 90 88 87 85 85 84 83 83 82 80 78 75 71 66 62 58 55 53 50 49 47 47 47 49 51 53 54 55 55 57 59 62
59 59 60 60 61 61 61 61 61 61 61 60 60 60 60 60 60 60 61 62 62 63 64 64 65 65 66 66 67 67 68 69 70 70 71 71 71 71 72 72 72 73 73 74 76 77 79 79 80 81 82 83 85 86 87 87 88 90 91 92 93 94 94 94 94 95 95 94 93 91 89 87 86 85 84 83 82 81 80 79 78 75 71 67 63 59 55 52 50 48 46 45 45 45 46 48 50 52 52 53 54 56 58
59 60 60 60 61 61 61 61 61 61 61 60 60 60 60 60 60 61 61 62 63 63 64 64 65 65 66 66 67 68 68 69 70 70 71 71 72 72 72 73 74 75 77 77 78 79 80 81 81 82 82 83 84 85 87 88 88 89 90 91 92 93 92 92 92 93 93 92 91 90 88 86 84 83 82 81 80 79 78 77 75 72 68 64 59 55 52 50 48 46 45 44 43 43 44 46 47 48 49 50 51 52 54
60 60 60 61 61 61 61 61 61 61 60 60 60 60 60 60 60 61 61 62 63 63 64 64 65 66 66 66 67 67 68 69 70 70 71 71 72 72 72 73 74 76 78 79 80 81 82 82 82 82 82 83 83 84 85 87 88 89 90 90 91 91 91 91 91 91 91 90 89 88 86 84 83 81 80 79 78 77 76 75 73 70 65 61 56 53 50 48 46 44 43 42 41 41 42 43 44 45 46 46 47 49 50
60 60 61 61 61 61 61 61 61 61 60 60 60 60 60 60 61 61 61 62 62 63 64 64 65 65 66 66 66 67 67 68 69 70 71 71 71 72 73 74 75 76 78 79 81 82 84 84 84 84 83 83 83 83 84 85 87 88 89 90 90 90 89 88 89 89 89 89 88 86 84 83 81 80 79 77 76 75 74 73 71 68 63 58 54 51 48 46 44 43 41 40 39 39 39 39 40 41 42 43 44 45 46
60 61 61 61 62 62 62 61 61 60 60 60 60 60 61 61 61 61 61 62 62 63 64 64 65 65 65 66 66 66 67 68 69 70 71 72 72 72 73 74 75 77 78 80 81 83 84 85 86 86 85 84 83 83 84 84 85 86 88 89 89 89 87 86 86 86 87 87 86 85 83 82 80 79 77 75 74 73 72 71 69 66 61 57 52 49 46 44 42 40 39 38 37 36 36 35 35 36 37 38 40 41 42
61 61 61 62 62 62 62 61 61 61 60 60 60 61 61 61 61 61 61 62 62 63 64 64 65 65 65 65 66 66 67 68 70 71 72 73 73 73 73 74 76 77 79 80 82 84 85 86 86 87 87 86 85 84 83 84 85 85 86 87 87 87 86 85 84 84 84 84 84 83 82 81 79 77 75 73 72 71 70 69 68 64 60 56 51 48 45 42 40 38 37 35 34 33 32 31 31 31 32 34 35 37 38
61 61 62 62 62 62 62 61 61 61 60 60 61 61 61 61 61 61 62 62 62 63 64 64 65 65 65 65 66 66 67 69 70 72 72 73 74 74 74 75 76 77 79 81 82 84 85 86 87 87 87 87 87 85 84 84 84 85 86 86 85 83 82 82 82 82 82 81 81 81 81 79 78 76 74 71 70 69 69 68 66 64 60 55 51 47 44 41 39 37 35 33 32 30 29 28 27 27 28 29 31 32 33
Wind_Direction
303 303 302 302 301 301 301 300 300 300 300 299 299 299 298 298 298 297 296 296 295 295 294 293 292 292 291 291 290 289 289 288 287 286 286 285 285 284 284 283 283 282 282 281 281 280 280 279 279 279 278 278 278 277 277 277 277 277 277 276 276 276 276 276 276 276 276 276 276 276 276 276 275 275 274 273 271 269 266 264 262 261 260 260 260 261 262 262 263 262 262 261 260 259 258 257 256 255 254 252 251 249 248
304 303 303 302 302 302 301 301 300 300 300 299 299 298 298 298 297 297 296 296 296 295 295 294 294 293 293 292 292 291 290 290 289 288 288 287 286 285 285 284 284 283 282 282 281 280 280 279 278 278 278 277 277 276 276 276 275 275 275 275 275 275 275 275 275 275 275 275 275 275 275 275 275 275 274 274 273 272 270 268 266 264 262 261 260 260 260 261 261 262 262 262 261 260 259 259 258 256 255 254 252 250 249
304 304 304 303 303 302 302 301 301 300 300 299 299 298 298 297 297 297 296 296 296 295 295 295 295 294 294 293 293 292 291 291 290 289 289 288 287 286 286 285 284 283 283 282 281 281 280 279 278 278 277 277 276 276 275 275 274 274 274 274 274 273 273 273 273 273 273 273 273 273 273 274 274 273 273 273 273 272 271 270 269 267 265 263 262 260 259 259 260 261 261 261 261 261 260 259 258 258 257 255 253 252 250
306 305 305 304 304 303 303 302 302 301 300 300 299 299 298 298 297 297 297 297 296 296 296 295 295 295 294 294 293 293 292 291 291 290 289 289 288 287 286 286 285 284 283 283 282 281 280 280 279 278 277 277 276 276 275 275 274 274 273 273 273 273 273 272 272 272 272 272 272 272 272 272 272 272 272 272 272 271 271 271 270 269 267 266 264 263 261 260 259 259 260 260 261 261 260 260 259 258 257 256 255 254 252
307 307 306 306 305 305 304 304 303 302 302 301 300 300 300 299 299 298 298 298 298 297 297 296 296 296 295 295 294 294 293 292 292 291 290 290 289 288 287 287 286 285 284 283 283 282 281 280 280 279 278 277 277 276 275 275 274 274 273 273 273 272 272 272 272 272 271 271 271 271 271 271 271 270 270 270 270 270 270 270 270 269 268 268 266 265 263 262 260 259 259 259 259 260 260 260 259 259 258 257 256 255 253
309 308 308 307 307 306 306 305 305 304 303 303 303 302 302 301 301 301 300 300 299 299 298 298 297 297 296 296 295 295 294 294 293 292 292 291 290 290 289 288 287 287 286 285 284 283 283 282 281 280 279 279 278 277 276 276 275 275 274 273 273 273 272 272 272 271 271 271 271 270 270 270 270 269 269 269 269 268 268 268 268 268 268 268 267 266 265 264 262 260 259 259 258 259 259 260 260 259 258 257 256 255 254
311 310 310 309 308 308 307 307 306 306 305 305 305 304 304 304 303 303 302 302 301 301 300 300 299 298 298 297 297 296 296 295 295 294 293 293 292 291 291 290 289 289 288 287 286 285 284 284 283 282 281 280 280 279 278 277 276 276 275 274 274 273 273 273 272 272 271 271 271 270 270 269 269 268 268 267 267 267 266 266 266 266 266 266 266 266 266 265 264 262 261 260 259 258 258 258 259 259 259 258 257 256 255
312 311 311 310 310 309 309 308 308 307 307 307 307 306 306 306 305 305 304 304 303 303 302 302 301 300 300 299 299 298 297 297 296 296 295 295 294 294 293 292 292 291 290 289 288 288 287 286 285 284 283 282 281 281 280 279 278 277 276 276 275 275 274 273 273 272 272 271 271 270 270 269 269 268 267 267 266 265 265 264 264 264 263 263 264 264 264 265 264 264 263 261 260 259 258 258 258 258 258 259 258 257 255
312 312 311 311 310 310 310 309 309 308 308 308 308 307 307 307 306 306 305 305 304 304 303 303 302 302 301 301 300 300 299 299 298 298 297 297 296 296 295 294 294 293 292 292 291 290 289 288 287 286 285 284 283 282 281 280 279 278 277 277 276 275 275 274 274 273 272 272 271 271 270 269 269 268 267 266 266 265 264 263 263 262 262 261 261 261 261 261 262 262 263 262 261 260 259 258 257 257 257 258 258 258 257
312 312 311 311 311 310 310 310 309 309 309 308 308 308 308 307 307 306 306 305 305 305 304 304 303 303 302 302 301 301 300 300 300 299 299 298 298 298 297 297 296 295 295 294 293 292 291 290 289 288 287 286 284 283 282 281 280 279 278 278 277 276 275 275 274 274 273 273 272 271 271 270 269 269 268 267 266 265 264 264 263 262 261 261 260 259 259 259 259 259 260 260 261 260 260 259 258 257 257 257 257 257 257
311 311 311 310 310 310 310 309 309 309 309 308 308 308 308 307 307 306 306 306 305 305 304 304 304 303 303 303 302 302 302 301 301 300 300 300 300 299 299 298 297 297 296 295 294 293 292 291 290 289 288 287 285 284 283 282 281 280 279 278 277 277 276 275 275 274 274 273 273 272 272 271 270 270 269 268 267 266 265 264 263 263 262 261 260 259 259 258 258 257 257 257 258 258 258 258 258 258 257 257 256 256 256
310 310 310 310 310 309 309 309 309 309 308 308 308 308 307 307 307 306 306 305 305 305 304 304 304 303 303 303 303 302 302 302 302 302 301 301 301 300 300 299 299 298 297 296 295 294 293 292 291 290 289 287 286 285 284 283 281 280 279 278 278 277 276 276 275 275 274 274 274 273 272 272 271 271 270 269 269 268 267 266 265 264 263 262 261 260 259 259 258 257 257 256 256 256 256 256 257 257 257 257 256 256 256
310 310 309 309 309 309 309 308 308 308 308 308 308 307 307 307 306 306 306 305 305 304 304 304 304 303 303 303 303 303 303 303 302 302 302 302 302 301 301 300 300 299 298 297 296 295 294 293 292 291 290 288 287 286 284 283 282 281 280 279 278 277 276 276 275 275 274 274 274 274 273 273 272 272 271 270 270 269 268 267 267 266 265 264 263 262 261 260 259 258 257 256 256 255 255 255 255 255 255 255 255 256 255
310 309 309 309 309 309 308 308 308 308 307 307 307 307 307 306 306 306 305 305 305 304 304 304 304 303 303 303 303 303 303 303 303 303 303 303 302 302 302 301 301 300 299 298 298 297 296 294 293 292 291 289 288 287 286 284 283 282 281 280 279 278 277 276 275 275 275 274 274 274 274 273 273 273 272 272 271 271 270 269 268 267 266 265 265 263 262 261 260 260 259 258 257 256 255 255 254 254 254 253 254 254 254
310 309 309 309 309 308 308 308 307 307 307 307 306 306 306 306 306 305 305 305 304 304 304 304 303 303 303 303 303 303 303 303 303 303 303 303 303 303 302 302 302 301 300 300 299 298 297 296 295 294 292 291 290 288 287 286 284 283 282 281 280 279 278 277 276 276 275 275 275 274 274 274 274 274 274 273 273 272 272 271 270 269 269 268 266 265 264 263 262 261 260 259 258 257 256 255 254 254 253 252 252 252 252
309 309 309 309 308 308 308 307 307 307 306 306 306 306 305 305 305 305 305 304 304 304 304 303 303 303 303 303 303 303 303 304 304 304 303 303 303 303 303 303 302 302 301 301 300 299 298 297 296 295 294 293 292 290 289 287 286 285 284 283 282 281 280 279 278 277 276 276 275 275 275 275 274 274 274 274 274 274 273 273 272 272 271 270 269 268 267 266 264 263 262 261 260 259 257 256 255 254 253 252 252 251 251
309 309 309 308 308 308 307 307 307 306 306 306 305 305 305 305 305 304 304 304 304 303 303 303 303 303 303 303 303 304 304 304 304 304 304 304 304 304 303 303 303 302 302 302 301 300 300 299 298 297 296 295 294 292 291 290 288 287 286 285 284 283 282 281 280 279 278 278 277 277 276 276 275 275 275 275 275 274 274 274 274 273 273 272 271 270 269 268 267 266 264 263 262 261 260 258 257 255 254 253 252 251 250
309 309 308 308 307 307 307 306 306 306 306 305 305 305 305 304 304 304 304 304 303 303 303 303 303 303 303 303 303 304 304 304 304 304 304 304 304 304 303 303 303 303 303 302 302 301 301 300 300 299 298 297 296 294 293 292 290 289 288 287 286 285 284 283 282 281 281 280 279 279 278 278 277 277 276 276 276 275 275 275 275 275 274 274 273 273 272 271 270 268 267 266 265 263 262 260 259 257 256 254 253 252 251
308 308 308 308 307 307 307 306 306 306 306 305 305 305 305 304 304 304 304 304 303 303 303 303 303 303 303 303 304 304 304 304 304 304 304 304 303 303 303 303 303 303 303 303 302 302 302 301 301 300 299 298 297 296 295 294 293 291 290 289 288 287 286 285 284 284 283 282 282 281 281 280 280 279 279 278 278 277 277 276 276 276 276 275 275 274 274 273 272 271 270 269 268 266 265 263 262 260 258 256 254 253 251
308 308 308 307 307 307 307 306 306 306 306 305 305 305 305 305 305 304 304 304 304 304 304 304 304 304 304 304 304 304 304 304 304 304 304 304 303 303 303 303 303 303 303 303 303 302 302 302 301 301 300 300 299 298 297 296 295 294 292 291 290 289 288 287 287 286 285 285 284 284 283 283 282 282 281 281 281 280 279 279 278 278 277 277 277 276 276 275 274 274 273 272 271 269 268 266 265 263 261 258 256 254 252
308 308 308 308 307 307 307 306 306 306 306 306 306 305 305 305 305 305 305 305 305 305 305 305 305 305 305 304 304 304 304 304 304 304 304 304 304 303 303 303 303 303 303 303 303 302 302 302 302 301 301 301 300 299 298 298 297 296 295 293 292 291 290 290 289 288 288 287 287 286 286 285 285 284 284 284 283 283 282 281 281 280 280 279 279 278 277 277 276 276 275 274 273 272 271 269 267 266 264 261 259 256 254
309 308 308 308 308 307 307 307 306 306 306 306 306 306 306 306 306 306 306 306 306 306 306 306 306 306 305 305 305 305 305 305 305 305 304 304 304 304 303 303 303 303 303 303 302 302 302 302 302 302 302 301 301 300 300 299 298 297 296 295 294 293 293 292 291 290 290 289 289 288 288 288 287 287 286 286 285 285 284 284 283 282 282 281 281 280 280 279 279 278 277 276 276 274 273 272 270 268 266 264 261 258 255
309 309 309 308 308 307 307 307 307 306 306 306 306 306 306 306 307 307 307 307 307 307 307 307 307 307 306 306 306 306 306 306 305 305 305 305 304 304 304 303 303 303 303 303 302 302 302 302 302 302 302 302 301 301 301 300 299 299 298 297 296 295 294 294 293 292 292 291 291 290 290 289 289 289 288 288 287 287 286 286 285 285 284 283 283 283 282 282 281 280 280 279 278 277 276 274 272 270 268 266 263 260 257
310 309 309 309 308 308 307 307 307 307 307 306 306 307 307 307 307 307 307 308 308 308 308 308 308 308 307 307 307 307 307 306 306 306 305 305 305 304 304 304 303 303 303 303 302 302 302 302 302 302 302 302 302 302 301 301 300 300 299 298 298 297 296 295 294 294 293 293 292 292 291 291 291 290 290 290 289 289 288 288 287 287 286 286 285 285 285 284 284 283 282 281 280 279 278 276 274 272 270 267 264 261 258
310 310 309 309 308 308 308 307 307 307 307 307 307 307 307 307 307 308 308 308 308 309 309 309 309 308 308 308 308 308 307 307 307 306 306 305 305 305 304 304 304 303 303 303 303 302 302 302 302 302 302 302 302 302 302 301 301 301 300 299 299 298 297 296 295 295 294 294 293 293 293 293 292 292 291 291 290 290 290 289 289 288 288 288 287 287 287 286 286 285 285 284 283 281 280 278 275 273 270 267 264 262 259
311 310 310 309 309 308 308 308 307 307 307 307 307 307 307 307 308 308 308 309 309 309 309 309 309 309 309 309 309 308 308 308 307 307 306 306 306 305 305 304 304 304 303 303 303 303 303 303 302 302 302 302 302 302 302 302 301 301 300 300 299 298 298 297 296 296 295 295 295 295 294 294 294 293 293 292 292 291 291 291 290 290 290 290 289 289 289 288 288 287 286 285 284 283 281 279 276 273 270 267 264 261 258
311 311 310 310 309 309 308 308 307 307 307 307 307 307 307 308 308 308 308 309 309 309 309 309 309 309 309 309 309 309 309 308 308 308 307 307 306 306 305 305 304 304 304 304 303 303 303 303 303 303 303 303 302 302 302 302 302 301 301 300 299 299 298 297 297 297 297 296 296 296 296 295 295 294 294 293 293 293 292 292 292 292 292 291 291 291 290 290 289 289 288 287 285 283 281 279 276 273 269 266 263 260 257
312 311 310 310 309 309 308 308 308 307 307 307 307 307 307 308 308 308 308 309 309 309 309 309 309 310 310 310 310 310 309 309 309 308 308 307 307 306 306 305 305 305 304 304 304 304 303 303 303 303 303 303 303 302 302 302 302 301 301 300 300 299 299 298 298 298 298 298 298 297 297 296 296 295 295 295 294 294 294 293 293 293 293 293 293 292 292 291 291 290 289 287 285 283 281 278 275 272 268 265 261 258 256
312 312 311 310 310 309 309 308 308 307 307 307 307 307 307 307 308 308 308 309 309 309 309 309 310 310 310 310 310 310 310 310 309 309 308 308 307 307 306 306 306 305 305 305 304 304 304 304 304 303 303 303 303 303 302 302 302 301 301 300 300 300 300 299 300 300 299 299 299 299 298 298 297 297 296 296 295 295 295 295 295 294 294 294 294 294 293 293 292 291 289 287 285 283 280 277 274 270 267 263 260 257 254
313 312 312 311 310 310 309 308 308 308 307 307 307 307 307 307 308 308 308 309 309 309 309 309 310 310 310 310 310 310 310 310 310 310 309 309 308 307 307 307 306 306 305 305 305 305 304 304 304 304 304 303 303 303 303 302 302 302 301 301 301 301 301 301 301 301 301 301 300 300 299 299 298 298 297 297 297 296 296 296 296 296 296 296 295 295 294 293 292 291 289 287 284 281 278 275 272 269 265 262 258 255 252
314 313 312 311 311 310 309 309 308 308 307 307 307 307 307 307 308 308 308 309 309 309 309 309 310 310 310 310 310 310 310 310 310 310 310 309 309 308 308 307 307 307 306 306 306 305 305 305 304 304 304 304 303 303 303 303 302 302 302 302 302 302 302 302 302 302 302 302 301 301 300 300 299 299 299 298 298 298 298 297 297 297 297 297 296 296 295 294 292 290 288 286 283 280 277 274 270 267 264 260 257 254 251
315 314 313 312 312 311 310 309 309 308 308 307 307 307 307 307 308 308 308 309 309 309 309 310 310 310 310 310 310 310 310 311 311 310 310 310 309 309 308 308 308 307 307 307 306 306 305 305 305 304 304 304 304 304 303 303 303 303 303 303 303 303 304 304 304 304 303 303 302 302 301 301 301 300 300 300 299 299 299 299 299 299 298 298 297 297 295 294 292 290 287 284 281 278 275 272 269 266 262 259 256 253 250
317 316 315 314 313 312 311 310 309 309 308 308 308 307 307 308 308 308 308 309 309 309 310 310 310 310 310 310 310 310 311 311 311 311 310 310 310 309 309 308 308 308 308 307 307 306 306 306 305 305 305 305 304 304 304 304 304 304 304 304 305 305 305 305 305 305 304 304 303 303 302 302 302 302 301 301 301 301 301 300 300 300 300 299 298 297 296 293 291 288 286 283 280 277 274 271 268 265 262 259 255 252 249
318 317 316 315 314 313 312 311 310 310 309 308 308 308 308 308 308 308 309 309 310 310 310 310 310 310 310 310 310 311 311 311 311 311 311 310 310 310 309 309 309 308 308 308 307 307 307 306 306 305 305 305 305 305 305 305 305 305 306 306 306 306 306 306 306 306 305 305 304 304 304 303 303 303 303 302 302 302 302 302 301 301 301 300 299 297 295 293 290 287 285 282 279 276 273 270 267 264 261 258 255 252 249
319 318 317 316 315 314 313 312 311 310 310 309 309 309 308 308 308 309 309 309 310 310 310 310 310 310 310 311 311 311 311 311 311 311 311 311 310 310 309 309 309 309 308 308 308 307 307 307 306 306 306 306 306 306 306 306 307 307 307 308 308 308 308 308 307 307 306 306 305 305 305 304 304 304 304 304 303 303 303 303 303 302 302 301 299 297 295 292 289 287 284 281 278 276 273 270 267 264 261 259 256 252 249
319 319 318 317 316 315 314 313 312 311 311 310 309 309 309 309 309 309 309 310 310 310 311 311 311 311 311 311 311 311 311 311 312 312 311 311 311 310 310 309 309 309 309 308 308 308 308 307 307 307 307 307 307 307 307 308 308 309 309 309 309 309 309 309 308 308 307 307 306 306 306 305 305 305 305 305 305 304 304 304 304 303 302 301 299 297 294 291 289 286 284 281 279 276 273 270 267 265 262 259 256 253 250
320 319 318 317 317 316 315 314 313 312 311 311 310 309 309 309 309 309 309 310 310 311 311 311 311 311 311 311 311 311 311 312 312 312 311 311 311 310 310 309 309 309 309 308 308 308 308 308 308 308 308 308 308 309 309 309 310 310 311 311 311 311 310 310 309 309 308 308 307 307 307 307 307 306 306 306 306 306 305 305 305 304 303 301 299 296 294 291 288 286 284 281 279 276 273 271 268 265 262 259 256 253 251
320 319 319 318 317 316 315 315 314 313 312 311 311 310 310 309 309 309 310 310 310 311 311 311 311 311 312 312 311 311 312 311 312 311 311 311 310 310 310 309 309 309 309 309 308 308 308 308 308 309 309 309 310 310 311 311 311 312 312 312 312 312 311 311 310 310 309 309 308 308 308 308 308 308 308 307 307 307 307 306 305 304 303 301 298 296 293 291 288 286 284 282 279 277 274 271 268 265 262 259 257 254 251
320 320 319 318 317 316 316 315 314 313 312 312 311 311 310 310 310 309 310 310 310 311 311 312 312 312 312 312 312 312 312 312 311 311 311 311 310 310 309 309 309 309 309 309 309 309 309 309 309 310 311 311 312 312 312 313 313 313 313 313 313 313 312 312 311 311 310 310 309 309 309 309 309 309 309 309 308 308 307 307 306 304 302 300 298 295 293 291 289 286 284 282 279 277 274 271 268 265 263 260 257 254 252
320 320 319 318 317 317 316 315 314 313 313 312 311 311 310 310 310 310 310 310 311 311 311 312 312 312 312 312 312 312 312 311 311 311 311 310 310 310 309 309 309 309 309 309 309 309 309 310 311 311 312 313 313 314 314 314 314 314 314 314 314 313 313 312 312 311 311 311 311 310 310 311 310 310 310 310 309 309 308 307 306 304 302 300 297 295 293 291 288 286 284 281 279 276 274 271 268 265 263 260 257 255 252
320 320 319 318 318 317 316 315 314 313 313 312 311 311 311 310 310 310 310 310 311 311 311 312 312 312 312 312 312 312 312 311 311 311 310 310 309 309 309 309 310 310 310 310 310 310 311 311 312 313 314 314 315 315 315 315 315 315 315 315 314 314 314 313 313 312 312 312 312 312 312 312 312 311 311 311 310 309 308 307 305 303 301 299 297 295 292 290 288 285 283 280 278 276 273 270 268 265 262 260 257 255 252
320 319 319 318 318 317 316 315 314 313 313 312 312 311 311 310 310 310 310 310 311 311 311 312 312 312 312 312 312 312 312 311 311 310 310 309 309 309 310 310 311 311 311 311 311 311 312 313 313 314 315 316 316 316 316 316 316 315 315 315 315 314 314 314 313 313 313 313 313 313 313 313 313 312 312 311 311 309 308 307 305 303 301 299 297 295 292 290 287 285 282 279 277 275 272 269 267 264 262 260 257 255 253
319 319 319 319 318 317 316 315 314 314 313 312 312 311 311 311 310 310 310 310 311 311 312 312 312 312 312 312 312 312 312 311 311 310 309 309 309 310 310 311 312 312 312 312 313 313 313 314 315 315 316 317 317 317 317 316 316 316 315 315 315 315 314 314 314 314 314 314 314 314 314 314 314 313 313 312 311 309 308 306 305 303 301 299 297 295 292 290 287 284 281 279 276 273 271 268 266 263 261 259 257 255 253
318 319 319 319 318 318 317 316 315 314 313 313 312 312 311 311 310 310 310 310 311 311 312 312 312 312 312 312 312 312 312 311 311 310 309 309 309 310 311 312 313 313 314 314 314 314 315 315 316 316 317 317 318 317 317 316 316 316 316 315 315 315 315 315 315 315 315 315 315 315 315 315 314 314 313 312 311 309 308 306 305 304 302 300 298 295 293 290 287 284 281 278 275 272 270 267 264 262 260 258 256 254 252
318 318 318 319 318 318 317 316 315 314 313 313 312 312 311 311 310 310 310 310 311 311 311 312 312 312 312 312 312 312 312 311 310 310 309 310 310 311 311 312 313 314 314 315 315 315 316 316 317 317 318 318 318 318 317 316 316 316 316 316 316 315 315 315 315 315 316 316 316 316 316 316 315 314 313 312 311 310 308 307 306 304 303 301 298 296 293 291 288 285 281 278 275 272 269 266 263 261 259 257 255 253 251
317 318 318 318 318 318 317 316 315 314 314 313 312 312 311 311 311 310 310 310 310 311 311 311 312 312 312 312 312 312 311 311 310 310 310 310 310 311 312 313 314 315 315 316 316 316 317 317 317 318 318 318 318 318 317 316 316 316 316 316 316 316 316 316 316 316 316 317 317 317 317 316 316 315 313 312 311 310 309 308 307 305 304 302 299 297 294 291 288 285 282 278 275 271 268 265 262 260 257 255 253 252 250
316 317 318 318 318 318 317 316 316 315 314 313 313 312 312 311 311 310 310 310 310 310 311 311 311 311 311 311 311 311 311 310 310 310 310 310 311 311 312 313 314 315 316 317 317 317 317 318 318 318 319 318 318 318 317 317 316 316 316 316 316 316 317 317 317 317 317 317 318 318 317 317 316 315 314 313 312 311 310 309 308 306 305 303 300 297 295 292 289 285 282 278 274 271 267 264 261 259 256 254 252 250 249
316 316 317 318 318 318 317 317 316 315 314 313 313 312 312 311 311 311 310 310 310 310 310 310 311 311 311 311 311 311 310 310 310 311 311 311 311 312 312 313 314 315 316 317 317 317 318 318 318 319 319 318 318 318 317 317 316 316 317 317 317 317 317 318 318 318 318 318 318 318 318 317 316 315 315 314 313 312 311 310 309 307 306 304 301 298 295 292 289 285 282 278 274 270 267 263 260 258 255 252 250 249 247
315 316 316 317 318 318 317 316 316 315 314 313 313 312 312 312 311 311 311 310 310 310 310 310 310 310 310 310 310 310 310 311 311 311 312 312 312 313 313 313 314 315 316 317 317 318 318 318 319 319 319 319 318 318 317 317 317 317 317 317 318 318 318 318 319 319 319 319 319 319 318 318 317 316 315 315 314 313 312 311 310 308 307 305 302 299 296 292 289 285 282 278 274 270 266 263 260 257 254 251 249 247 246
314 315 316 317 317 317 317 316 315 315 314 313 313 312 312 312 311 311 311 310 310 310 309 309 309 309 309 310 310 310 310 311 311 312 313 313 314 314 314 314 315 315 316 317 317 318 318 319 319 319 319 319 318 318 318 317 318 318 318 318 318 319 319 319 319 319 320 320 320 319 319 318 317 317 316 315 315 314 313 312 311 310 308 306 304 300 297 293 289 285 281 277 274 270 266 263 259 256 253 251 248 246 244
314 314 315 316 317 317 317 316 315 314 314 313 313 312 312 312 312 311 311 311 310 310 309 309 309 308 308 309 309 309 310 310 311 313 314 314 315 315 316 316 316 316 317 317 317 318 318 319 319 319 319 319 319 318 318 318 318 319 319 319 319 319 320 320 320 320 320 320 320 320 319 318 318 317 317 316 315 315 314 313 312 311 310 308 305 301 298 294 289 285 281 278 274 270 267 263 260 256 253 250 248 246 244
313 314 315 315 316 316 316 316 315 314 313 313 313 313 312 312 312 312 311 311 310 310 309 309 308 308 308 308 308 309 309 310 311 313 314 315 316 316 316 317 317 317 317 317 317 318 319 319 319 320 319 319 319 319 319 319 319 319 319 320 320 320 320 320 321 321 321 321 321 320 320 319 318 318 318 317 316 315 315 314 313 312 311 309 306 302 299 294 290 286 282 278 274 271 267 264 261 257 253 249 247 246 245
312 313 314 315 315 316 315 315 314 314 313 313 313 313 313 312 312 312 312 311 311 310 309 309 308 308 308 308 308 308 309 310 311 312 314 315 316 317 317 318 318 318 318 318 318 318 319 319 320 320 320 320 320 319 319 319 320 320 320 320 320 321 321 321 321 321 322 322 321 321 320 320 319 319 319 318 317 317 316 316 315 314 313 310 307 304 300 296 291 287 283 279 275 271 268 265 261 258 254 250 247 245 244
312 313 313 314 315 315 315 315 314 313 313 313 313 313 313 313 313 312 312 312 311 310 310 309 309 308 308 308 308 309 309 310 311 313 314 315 316 318 318 319 319 318 318 318 318 318 319 319 320 320 320 320 320 320 320 320 320 320 321 321 321 321 322 322 322 322 322 322 322 321 321 320 320 320 320 319 319 318 318 318 317 316 314 312 308 305 301 297 293 288 284 280 276 272 268 265 262 258 255 251 247 245 243
311 312 313 313 314 314 314 314 313 313 313 312 312 313 313 313 313 313 312 312 312 311 311 310 309 309 309 308 309 309 310 311 312 313 314 315 316 318 319 319 319 319 318 318 318 319 319 320 320 320 321 321 320 320 320 320 321 321 321 321 322 322 322 322 322 322 323 322 322 322 321 321 321 321 321 320 320 320 320 320 319 318 316 313 310 306 303 298 294 290 286 281 277 273 269 266 263 259 256 252 248 245 243
310 311 312 313 313 314 314 313 313 312 312 312 312 313 313 313 313 313 313 313 312 312 311 311 310 310 309 309 310 310 311 312 313 314 315 316 317 318 319 319 319 319 319 319 319 319 319 320 320 320 321 321 321 320 321 321 321 322 322 322 322 323 323 323 323 323 323 323 323 322 322 322 322 322 322 322 322 322 322 322 321 320 318 315 312 308 305 301 296 292 288 283 279 274 270 267 264 260 257 253 249 245 242
310 311 311 312 313 313 313 313 312 312 312 312 312 313 313 313 313 313 313 313 313 313 312 312 311 311 310 310 310 311 312 314 314 315 316 317 318 319 319 319 319 319 319 319 319 319 319 320 320 320 321 321 321 321 321 322 322 323 323 323 323 323 323 323 323 323 323 323 323 323 323 323 323 324 324 324 324 324 324 324 324 322 320 317 314 311 307 303 299 295 291 286 281 276 272 268 265 261 257 253 249 244 241
309 310 311 311 312 313 313 312 312 312 312 312 312 313 313 314 314 314 314 314 314 314 314 313 313 312 311 311 311 312 314 315 316 317 317 318 319 319 320 319 319 319 319 319 319 319 320 320 320 320 321 321 321 322 322 323 323 323 323 323 324 324 323 323 323 324 324 324 323 323 324 324 325 325 325 325 325 326 326 326 326 324 323 320 317 313 310 306 302 298 294 289 285 279 274 269 265 261 257 253 248 243 239
309 309 310 311 312 312 312 312 312 312 312 312 313 313 313 314 314 314 315 315 315 315 315 314 314 313 312 312 312 314 315 317 318 319 319 320 320 320 320 319 319 319 319 319 319 319 320 320 320 320 321 321 322 323 323 324 324 324 324 324 324 324 324 324 324 324 324 324 324 324 324 325 326 327 327 327 327 327 328 328 327 326 325 322 320 316 313 309 306 302 298 293 288 283 277 271 266 261 256 251 246 241 236
308 309 309 310 311 311 312 312 312 312 312 312 313 313 314 314 314 315 315 315 316 316 316 316 315 314 313 313 313 315 317 318 320 320 321 321 321 320 320 319 319 319 319 319 319 320 320 320 320 321 321 321 322 323 324 325 325 325 325 325 325 325 325 324 324 325 325 324 324 325 325 326 327 328 329 329 329 329 329 329 329 328 327 325 322 319 316 313 309 305 301 297 292 286 280 274 267 260 254 248 243 237 232
307 308 309 310 311 311 311 311 311 312 312 312 313 313 314 314 315 315 315 316 316 316 317 316 316 315 314 314 314 316 318 320 321 321 322 322 322 321 320 319 319 319 319 319 319 320 320 320 321 321 321 322 323 324 325 326 326 326 325 326 326 325 325 325 325 325 325 325 325 325 326 327 329 329 330 330 330 330 330 331 331 330 329 327 325 322 319 316 312 309 305 300 295 290 283 276 268 259 252 245 239 233 227